Volver al catálogo

FENGYUN 1C DEB

ActivoSSO
NORAD 38799·DEBRIS·🇨🇳 China

Lanzado May 10, 1999 desde Taiyuan Satellite Launch Center

Loading…

Próximos Pases (próximas 24 horas)

TLE

EnvejeciendoSource: Space-Track

Época: Sep 4, 2026, 12:00 UTC

1 38799U 99025EUP 26247.50051080  .00001542  00000-0  34353-3 0  9994
2 38799  98.3857 327.0904 0158192 258.2663 100.0746 14.50980737678903

Sigue FENGYUN 1C DEB en tiempo real con AllMySat

Download on the App Store